Tracking 19286 objects as of 18-Nov-2018
HD Live streaming from Space Station
objects crossing your sky now

GSAT 1

Track GSAT 1 now!
GSAT 1 is classified as:


NORAD ID: 26745
Int'l Code: 2001-015A
Perigee: 33,829.9 km
Apogee: 35,824.4 km
Inclination: 11.6 °
Period: 1,387.0 minutes
Semi major axis: 41198 km
RCS: 3.1622 m2 (large)
Launch date: April 18, 2001
Source: India (IND)
Launch site: SRIHARIKOTA (SRI)
aabbcc
Your satellite tracking list
Your tracking list is empty




NASA's NSSDC Master Catalog

Two Line Element Set (TLE):
1 26745U 01015A   18321.69591556 -.00000044  00000-0  00000+0 0  9990
2 26745  11.6060  25.7572 0242065 221.9558 233.7093  1.03821329 66771
Source of the keplerian elements: AFSPC